This is the latest recevied weather packets stored in our database for station/object N8VDS-10. If no packets are shown the sender has not sent any weather packets the latest 10 day(s).
| Time | Temp. | Humidity | Pressure | Rain* | Wind** | Luminosity | Snow |
|---|---|---|---|---|---|---|---|
| 1777935064 | 23.89° C | 39% | 1002.1 hPa | 0 mm | - | 150 W/m² | - |
| 1777934760 | 23.89° C | 38% | 1002 hPa | 0 mm | - | 155 W/m² | - |
| 1777934458 | 23.89° C | 38% | 1001.8 hPa | 0 mm | - | 168 W/m² | - |
| 1777934154 | 23.89° C | 37% | 1002.1 hPa | 0 mm | - | 189 W/m² | - |
| 1777933850 | 23.89° C | 36% | 1002.2 hPa | 0 mm | - | 186 W/m² | - |
| 1777933547 | 23.33° C | 36% | 1002.3 hPa | 0 mm | - | 199 W/m² | - |
| 1777933244 | 23.89° C | 36% | 1002.3 hPa | 0 mm | - | 83 W/m² | - |
| 1777932942 | 23.89° C | 34% | 1002.4 hPa | 0 mm | - | 223 W/m² | - |
| 1777932638 | 23.89° C | 33% | 1002.3 hPa | 0 mm | - | 231 W/m² | - |
| 1777932335 | 23.89° C | 33% | 1002.7 hPa | 0 mm | - | 272 W/m² | - |
| 1777932032 | 23.89° C | 33% | 1002.5 hPa | 0 mm | - | 244 W/m² | - |
| 1777931728 | 23.89° C | 33% | 1002.4 hPa | 0 mm | - | 303 W/m² | - |
| 1777931426 | 25° C | 32% | 1002.4 hPa | 0 mm | - | 310 W/m² | - |
| 1777931122 | 24.44° C | 33% | 1002.7 hPa | 0 mm | - | 355 W/m² | - |
| 1777930818 | 23.89° C | 33% | 1002.9 hPa | 0 mm | - | 353 W/m² | - |
| 1777930515 | 24.44° C | 31% | 1002.9 hPa | 0 mm | - | 381 W/m² | - |
| 1777930212 | 24.44° C | 32% | 1002.7 hPa | 0 mm | - | 362 W/m² | - |
| 1777929908 | 23.89° C | 32% | 1002.8 hPa | 0 mm | - | 417 W/m² | - |
| 1777929605 | 23.89° C | 32% | 1002.8 hPa | 0 mm | - | 354 W/m² | - |
| 1777929302 | 23.89° C | 32% | 1002.9 hPa | 0 mm | - | 337 W/m² | - |
| 1777928999 | 23.89° C | 32% | 1002.9 hPa | 0 mm | - | 304 W/m² | - |
| 1777928696 | 24.44° C | 31% | 1002.8 hPa | 0 mm | - | 341 W/m² | - |
| 1777928393 | 23.89° C | 31% | 1003.1 hPa | 0 mm | - | 401 W/m² | - |
| 1777928090 | 23.89° C | 31% | 1003 hPa | 0 mm | - | 358 W/m² | - |
| 1777927788 | 23.89° C | 30% | 1003 hPa | 0 mm | - | 400 W/m² | - |
* Rain latest hour (hover to see other rain measurements)
** Current wind speed in m/s (hover to see current wind gust speed)